Flag for Germany Weather past 2 weeks in Wittenberg, Saxony-Anhalt, Germany

Now
43 °F

Quite cool.


Feels Like: 43 °F
Forecast: 53 / 81 °F
Wind: 1 mph from Northeast

Location: Holzdorf

Current Time: Aug 1, 2015 at 4:05:17 AM

Latest Report: Aug 1, 2015 at 3:20 AM


Visibility: N/A

Pressure: 30.09 "Hg

Humidity: 93%

Dew point: 41 °F

Location of WittenbergLocation

Historic Weather in Wittenberg — Graph

°F

Wittenberg temperature yesterday

Maximum temperature yesterday: 68 °F (at 4:20 PM)
Minimum temperature yesterday: 48 °F (at 5:20 AM)
Average temperature yesterday: 59 °F

Past Weeks' High & Low Weather Summary

 TemperatureHumidityPressure
High93 °F (Jul 17, 6:20 PM)100% (Jul 17, 5:20 AM)30.09 "Hg (Jul 17, 5:20 AM)
Low45 °F (Aug 1, 1:20 AM)26% (Jul 17, 6:20 PM)29.56 "Hg (Jul 25, 8:20 AM)
Average68 °F66%29.86 "Hg
* Reported Jul 17 2:20 AM — Aug 1 2:20 AM, Wittenberg, Weather by CustomWeather, © 2015

Note: Actual official high and low records may vary slightly from our data, if they occured in-between our weather recording intervals... More about our weather records

Advertising

Wittenberg weather history for previous 24 hours

 ConditionsComfort  
Time TempWeatherWind HumidityBarometerVisibility
2:20 AM
Sat, Aug 1
45 °FQuite cool.No wind87%30.09 "HgN/A
1:20 AM45 °FQuite cool.No wind93%30.09 "HgN/A
12:20 AM46 °FCool.2 mph87%30.09 "HgN/A
11:20 PM
Fri, Jul 31
48 °FPassing clouds.2 mph82%30.07 "HgN/A
10:20 PM52 °FPassing clouds.3 mph72%30.07 "HgN/A
9:20 PM55 °FScattered clouds.3 mph63%30.07 "HgN/A
8:20 PM63 °FScattered clouds.3 mph49%30.07 "HgN/A
7:20 PM66 °FPassing clouds.6 mph40%30.07 "HgN/A
6:20 PM66 °FScattered clouds.8 mph40%30.07 "HgN/A
5:20 PM68 °FScattered clouds.8 mph38%30.07 "HgN/A
4:20 PM68 °FScattered clouds.8 mph38%30.07 "HgN/A
3:20 PM66 °FScattered clouds.10 mph43%30.09 "HgN/A
2:20 PM64 °FScattered clouds.8 mph46%30.09 "HgN/A
1:20 PM64 °FScattered clouds.12 mph46%30.09 "HgN/A
12:20 PM63 °FScattered clouds.8 mph52%30.09 "HgN/A
12:00 PM63 °FScattered clouds.9 mph52%30.09 "HgN/A
11:20 AM63 °FScattered clouds.8 mph52%30.09 "HgN/A
10:20 AM61 °FScattered clouds.9 mph59%30.09 "HgN/A
9:20 AM59 °FPassing clouds.10 mph68%30.09 "HgN/A
8:20 AM57 °FPassing clouds.10 mph72%30.09 "HgN/A
7:20 AM54 °FPassing clouds.8 mph77%30.07 "HgN/A
6:20 AM50 °FPassing clouds.5 mph82%30.07 "HgN/A
5:20 AM48 °FPassing clouds.3 mph94%30.04 "HgN/A
4:20 AM50 °FPassing clouds.3 mph82%30.04 "HgN/A
Weather by CustomWeather, © 2015

See weather overviewHow to use our weather pages